Location: Unspecified
(0.0000°N, 0.0000°E)
Time: 07:36:50
(UTC+00:00)

SRMSAT - Pass Details

Date: 29 March 2019
Orbit: 848 x 866 km, 20.0° (Epoch: 16 June)

Event Time Altitude Azimuth Distance (km) Brightness Sun altitude
Rises 18:17:33 0° 225° (SW) 3,421 ? -3.2°
Reaches altitude 10° 18:21:20 10° 202° (SSW) 2,481 ? -4.1°
Maximum altitude 18:24:36 15° 168° (SSE) 2,148 ? -4.9°
Drops below altitude 10° 18:27:51 10° 135° (SE) 2,473 ? -5.8°
Enters shadow 18:30:07 - 119° (ESE) 2,994 ? -6.3°
